Time,TemperatureF,DewpointF,PressureIn,WindDirection,WindDirectionDegrees,WindSpeedMPH,WindSpeedGustMPH,Humidity,HourlyPrecipIn,Conditions,Clouds,dailyrainin,SolarRadiationWatts/m^2,SoftwareType,DateUTC
2013-05-27 00:03:00,36.0,35.0,-100.00,SSW,195,2.0,4.0,96,0.00,,,0.11,0.000000,,2013-05-27 04:03:00,
2013-05-27 00:12:00,36.0,35.0,-100.00,SSW,195,2.0,4.0,96,0.00,,,0.11,0.000000,,2013-05-27 04:12:00,
2013-05-27 00:23:00,36.0,35.0,-100.00,SSW,195,2.0,4.0,96,0.00,,,0.11,0.000000,,2013-05-27 04:23:00,
2013-05-27 00:53:00,34.0,34.0,-100.00,ESE,118,2.0,4.0,99,0.00,,,0.11,0.000000,,2013-05-27 04:53:00,
2013-05-27 01:02:00,34.0,34.0,-100.00,ESE,118,2.0,4.0,99,0.00,,,0.11,0.000000,,2013-05-27 05:02:00,
2013-05-27 01:12:00,34.0,34.0,-100.00,ESE,118,2.0,4.0,99,0.00,,,0.11,0.000000,,2013-05-27 05:12:00,
2013-05-27 01:22:00,34.0,34.0,-100.00,ESE,118,2.0,4.0,99,0.00,,,0.11,0.000000,,2013-05-27 05:22:00,
2013-05-27 01:52:00,33.0,33.0,-100.00,ESE,117,2.0,3.0,99,0.00,,,0.10,0.000000,,2013-05-27 05:52:00,
2013-05-27 02:02:00,33.0,33.0,-100.00,ESE,117,2.0,3.0,99,0.00,,,0.10,0.000000,,2013-05-27 06:02:00,
2013-05-27 02:11:00,33.0,33.0,-100.00,ESE,117,2.0,3.0,99,0.00,,,0.10,0.000000,,2013-05-27 06:11:00,
2013-05-27 02:22:00,33.0,33.0,-100.00,ESE,117,2.0,3.0,99,0.00,,,0.10,0.000000,,2013-05-27 06:22:00,
2013-05-27 02:52:00,33.0,33.0,-100.00,ESE,115,1.0,3.0,100,0.00,,,0.09,0.000000,,2013-05-27 06:52:00,
2013-05-27 03:02:00,33.0,33.0,-100.00,ESE,115,1.0,3.0,100,0.00,,,0.09,0.000000,,2013-05-27 07:02:00,
2013-05-27 03:11:00,33.0,33.0,-100.00,ESE,115,1.0,3.0,100,0.00,,,0.09,0.000000,,2013-05-27 07:11:00,
2013-05-27 03:21:00,33.0,33.0,-100.00,ESE,115,1.0,3.0,100,0.00,,,0.09,0.000000,,2013-05-27 07:21:00,
2013-05-27 03:53:00,32.0,32.0,-100.00,SSE,157,1.0,3.0,100,0.00,,,0.06,0.000000,,2013-05-27 07:53:00,
2013-05-27 04:02:00,32.0,32.0,-100.00,SSE,157,1.0,3.0,100,0.00,,,0.06,0.000000,,2013-05-27 08:02:00,
2013-05-27 04:12:00,32.0,32.0,-100.00,SSE,157,1.0,3.0,100,0.00,,,0.06,0.000000,,2013-05-27 08:12:00,
2013-05-27 04:22:00,32.0,32.0,-100.00,SSE,157,1.0,3.0,100,0.00,,,0.06,0.000000,,2013-05-27 08:22:00,
2013-05-27 04:52:00,30.0,30.0,-100.00,ENE,73,1.0,2.0,100,0.00,,,0.05,0.000000,,2013-05-27 08:52:00,
2013-05-27 05:02:00,30.0,30.0,-100.00,ENE,73,1.0,2.0,100,0.00,,,0.05,0.000000,,2013-05-27 09:02:00,
2013-05-27 05:11:00,30.0,30.0,-100.00,ENE,73,1.0,2.0,100,0.00,,,0.05,0.000000,,2013-05-27 09:11:00,
2013-05-27 05:22:00,30.0,30.0,-100.00,ENE,73,1.0,2.0,100,0.00,,,0.05,0.000000,,2013-05-27 09:22:00,
2013-05-27 05:53:00,29.0,29.0,-100.00,West,266,1.0,2.0,100,0.00,,,0.05,2.000000,,2013-05-27 09:53:00,
2013-05-27 06:03:00,29.0,29.0,-100.00,West,266,1.0,2.0,100,0.00,,,0.05,2.000000,,2013-05-27 10:03:00,
2013-05-27 06:12:00,29.0,29.0,-100.00,West,266,1.0,2.0,100,0.00,,,0.05,2.000000,,2013-05-27 10:12:00,
2013-05-27 06:23:00,29.0,29.0,-100.00,West,266,1.0,2.0,100,0.00,,,0.05,2.000000,,2013-05-27 10:23:00,
2013-05-27 06:53:00,31.0,31.0,-100.00,NNW,345,1.0,2.0,99,0.00,,,0.04,34.000000,,2013-05-27 10:53:00,
2013-05-27 07:02:00,31.0,31.0,-100.00,NNW,345,1.0,2.0,99,0.00,,,0.04,34.000000,,2013-05-27 11:02:00,
2013-05-27 07:11:00,31.0,31.0,-100.00,NNW,345,1.0,2.0,99,0.00,,,0.04,34.000000,,2013-05-27 11:11:00,
2013-05-27 07:22:00,31.0,31.0,-100.00,NNW,345,1.0,2.0,99,0.00,,,0.04,34.000000,,2013-05-27 11:22:00,
2013-05-27 07:52:00,35.0,34.0,-100.00,NNW,335,1.0,2.0,97,0.01,,,0.05,141.000000,,2013-05-27 11:52:00,
2013-05-27 08:02:00,35.0,34.0,-100.00,NNW,335,1.0,2.0,97,0.01,,,0.05,141.000000,,2013-05-27 12:02:00,
2013-05-27 08:11:00,35.0,34.0,-100.00,NNW,335,1.0,2.0,97,0.01,,,0.05,141.000000,,2013-05-27 12:11:00,
2013-05-27 08:22:00,35.0,34.0,-100.00,NNW,335,1.0,2.0,97,0.01,,,0.05,141.000000,,2013-05-27 12:22:00,
2013-05-27 08:52:00,45.0,40.0,-100.00,NNW,333,3.0,6.0,83,0.00,,,0.05,344.000000,,2013-05-27 12:52:00,
2013-05-27 09:02:00,45.0,40.0,-100.00,NNW,333,3.0,6.0,83,0.00,,,0.05,344.000000,,2013-05-27 13:02:00,
2013-05-27 09:11:00,45.0,40.0,-100.00,NNW,333,3.0,6.0,83,0.00,,,0.05,344.000000,,2013-05-27 13:11:00,
2013-05-27 09:22:00,45.0,40.0,-100.00,NNW,333,3.0,6.0,83,0.00,,,0.05,344.000000,,2013-05-27 13:22:00,
2013-05-27 09:53:00,52.0,39.0,-100.00,WNW,297,7.0,14.0,62,0.00,,,0.05,553.000000,,2013-05-27 13:53:00,
2013-05-27 10:02:00,52.0,39.0,-100.00,WNW,297,7.0,14.0,62,0.00,,,0.05,553.000000,,2013-05-27 14:02:00,
2013-05-27 10:11:00,52.0,39.0,-100.00,WNW,297,7.0,14.0,62,0.00,,,0.05,553.000000,,2013-05-27 14:11:00,
2013-05-27 10:22:00,52.0,39.0,-100.00,WNW,297,7.0,14.0,62,0.00,,,0.05,553.000000,,2013-05-27 14:22:00,
2013-05-27 10:52:00,56.0,39.0,-100.00,WNW,285,6.0,14.0,52,0.00,,,0.05,718.000000,,2013-05-27 14:52:00,
2013-05-27 11:02:00,56.0,39.0,-100.00,WNW,285,6.0,14.0,52,0.00,,,0.05,718.000000,,2013-05-27 15:02:00,
2013-05-27 11:11:00,56.0,39.0,-100.00,WNW,285,6.0,14.0,52,0.00,,,0.05,718.000000,,2013-05-27 15:11:00,
2013-05-27 11:22:00,56.0,39.0,-100.00,WNW,285,6.0,14.0,52,0.00,,,0.05,718.000000,,2013-05-27 15:22:00,
2013-05-27 11:53:00,57.0,35.0,-100.00,WNW,293,8.0,19.0,44,0.00,,,0.05,789.000000,,2013-05-27 15:53:00,
2013-05-27 12:03:00,57.0,35.0,-100.00,WNW,293,8.0,19.0,44,0.00,,,0.05,789.000000,,2013-05-27 16:03:00,
2013-05-27 12:12:00,57.0,35.0,-100.00,WNW,293,8.0,19.0,44,0.00,,,0.05,789.000000,,2013-05-27 16:12:00,
2013-05-27 12:23:00,57.0,35.0,-100.00,WNW,293,8.0,19.0,44,0.00,,,0.05,789.000000,,2013-05-27 16:23:00,
2013-05-27 12:53:00,58.0,33.0,-100.00,WNW,301,8.0,25.0,39,0.00,,,0.05,773.000000,,2013-05-27 16:53:00,
2013-05-27 13:02:00,58.0,33.0,-100.00,WNW,301,8.0,25.0,39,0.00,,,0.05,773.000000,,2013-05-27 17:02:00,
2013-05-27 13:12:00,58.0,33.0,-100.00,WNW,301,8.0,25.0,39,0.00,,,0.05,773.000000,,2013-05-27 17:12:00,
2013-05-27 13:22:00,58.0,33.0,-100.00,WNW,301,8.0,25.0,39,0.00,,,0.05,773.000000,,2013-05-27 17:22:00,
2013-05-27 13:52:00,60.0,31.0,-100.00,WNW,291,8.0,25.0,33,0.00,,,0.05,905.000000,,2013-05-27 17:52:00,
2013-05-27 14:02:00,60.0,31.0,-100.00,WNW,291,8.0,25.0,33,0.00,,,0.05,905.000000,,2013-05-27 18:02:00,
2013-05-27 14:11:00,60.0,31.0,-100.00,WNW,291,8.0,25.0,33,0.00,,,0.05,905.000000,,2013-05-27 18:11:00,
2013-05-27 14:22:00,60.0,31.0,-100.00,WNW,291,8.0,25.0,33,0.00,,,0.05,905.000000,,2013-05-27 18:22:00,
2013-05-27 14:52:00,61.0,32.0,-100.00,WNW,297,7.0,19.0,33,0.00,,,0.05,877.000000,,2013-05-27 18:52:00,
2013-05-27 15:01:00,61.0,32.0,-100.00,WNW,297,7.0,19.0,33,0.00,,,0.05,877.000000,,2013-05-27 19:01:00,
2013-05-27 15:11:00,61.0,32.0,-100.00,WNW,297,7.0,19.0,33,0.00,,,0.05,877.000000,,2013-05-27 19:11:00,
2013-05-27 15:22:00,61.0,32.0,-100.00,WNW,297,7.0,19.0,33,0.00,,,0.05,877.000000,,2013-05-27 19:22:00,
2013-05-27 15:52:00,62.0,33.0,-100.00,WNW,301,7.0,18.0,33,0.00,,,0.05,803.000000,,2013-05-27 19:52:00,
2013-05-27 16:02:00,62.0,33.0,-100.00,WNW,301,7.0,18.0,33,0.00,,,0.05,803.000000,,2013-05-27 20:02:00,
2013-05-27 16:11:00,62.0,33.0,-100.00,WNW,301,7.0,18.0,33,0.00,,,0.05,803.000000,,2013-05-27 20:11:00,
2013-05-27 16:22:00,62.0,33.0,-100.00,WNW,301,7.0,18.0,33,0.00,,,0.05,803.000000,,2013-05-27 20:22:00,
2013-05-27 16:53:00,64.0,33.0,-100.00,WNW,289,6.0,18.0,31,0.00,,,0.05,665.000000,,2013-05-27 20:53:00,
2013-05-27 17:01:00,64.0,33.0,-100.00,WNW,289,6.0,18.0,31,0.00,,,0.05,665.000000,,2013-05-27 21:01:00,
2013-05-27 17:12:00,64.0,33.0,-100.00,WNW,289,6.0,18.0,31,0.00,,,0.05,665.000000,,2013-05-27 21:12:00,
2013-05-27 17:22:00,64.0,33.0,-100.00,WNW,289,6.0,18.0,31,0.00,,,0.05,665.000000,,2013-05-27 21:22:00,
2013-05-27 17:53:00,63.0,33.0,-100.00,WNW,295,7.0,17.0,32,0.00,,,0.03,489.000000,,2013-05-27 21:53:00,
2013-05-27 18:03:00,63.0,33.0,-100.00,WNW,295,7.0,17.0,32,0.00,,,0.03,489.000000,,2013-05-27 22:03:00,
2013-05-27 18:13:00,63.0,33.0,-100.00,WNW,295,7.0,17.0,32,0.00,,,0.03,489.000000,,2013-05-27 22:13:00,
2013-05-27 18:23:00,63.0,33.0,-100.00,WNW,295,7.0,17.0,32,0.00,,,0.03,489.000000,,2013-05-27 22:23:00,
2013-05-27 18:53:00,61.0,34.0,-100.00,WNW,293,6.0,16.0,36,0.00,,,0.02,319.000000,,2013-05-27 22:53:00,
2013-05-27 19:02:00,61.0,34.0,-100.00,WNW,293,6.0,16.0,36,0.00,,,0.02,319.000000,,2013-05-27 23:02:00,
2013-05-27 19:12:00,61.0,34.0,-100.00,WNW,293,6.0,16.0,36,0.00,,,0.02,319.000000,,2013-05-27 23:12:00,
2013-05-27 19:22:00,61.0,34.0,-100.00,WNW,293,6.0,16.0,36,0.00,,,0.02,319.000000,,2013-05-27 23:22:00,
2013-05-27 19:52:00,59.0,33.0,-100.00,West,281,5.0,17.0,38,0.00,,,0.01,219.000000,,2013-05-27 23:52:00,
2013-05-27 20:01:00,59.0,33.0,-100.00,West,281,5.0,17.0,38,0.00,,,0.01,219.000000,,2013-05-28 00:01:00,
2013-05-27 20:11:00,59.0,33.0,-100.00,West,281,5.0,17.0,38,0.00,,,0.01,219.000000,,2013-05-28 00:11:00,
2013-05-27 20:22:00,59.0,33.0,-100.00,West,281,5.0,17.0,38,0.00,,,0.01,219.000000,,2013-05-28 00:22:00,
2013-05-27 20:52:00,50.0,39.0,-100.00,SE,138,2.0,10.0,66,0.00,,,0.01,40.000000,,2013-05-28 00:52:00,
2013-05-27 21:01:00,50.0,39.0,-100.00,SE,138,2.0,10.0,66,0.00,,,0.01,40.000000,,2013-05-28 01:01:00,
2013-05-27 21:11:00,50.0,39.0,-100.00,SE,138,2.0,10.0,66,0.00,,,0.01,40.000000,,2013-05-28 01:11:00,
2013-05-27 21:22:00,50.0,39.0,-100.00,SE,138,2.0,10.0,66,0.00,,,0.01,40.000000,,2013-05-28 01:22:00,
2013-05-27 21:52:00,44.0,38.0,-100.00,SE,124,2.0,5.0,78,0.00,,,0.01,0.000000,,2013-05-28 01:52:00,
2013-05-27 22:02:00,44.0,38.0,-100.00,SE,124,2.0,5.0,78,0.00,,,0.01,0.000000,,2013-05-28 02:02:00,
2013-05-27 22:11:00,44.0,38.0,-100.00,SE,124,2.0,5.0,78,0.00,,,0.01,0.000000,,2013-05-28 02:11:00,
2013-05-27 22:22:00,44.0,38.0,-100.00,SE,124,2.0,5.0,78,0.00,,,0.01,0.000000,,2013-05-28 02:22:00,
2013-05-27 22:52:00,41.0,37.0,-100.00,ESE,122,2.0,3.0,86,0.00,,,0.01,0.000000,,2013-05-28 02:52:00,
2013-05-27 23:01:00,41.0,37.0,-100.00,ESE,122,2.0,3.0,86,0.00,,,0.01,0.000000,,2013-05-28 03:01:00,
2013-05-27 23:11:00,41.0,37.0,-100.00,ESE,122,2.0,3.0,86,0.00,,,0.01,0.000000,,2013-05-28 03:11:00,
2013-05-27 23:22:00,41.0,37.0,-100.00,ESE,122,2.0,3.0,86,0.00,,,0.01,0.000000,,2013-05-28 03:22:00,
2013-05-27 23:53:00,39.0,37.0,-100.00,SE,142,1.0,3.0,94,0.00,,,0.01,0.000000,,2013-05-28 03:53:00,